Content
SEND FEEDBACK

Daily
Averages
Monthly
Summary
United States of America

CLARKSBURG, WEST VIRGINIA


Home > North America > United States > West Virginia
Elevation: 1209 feet     Latitude: 39 17N     Longitude: 080 13W

WEATHER
 
SELECT A DAY
Number of Records: 201,095;   Date Range: 1/1/95 - 8/30/14
 
SHARE

PRINT THIS DATA

[ ← Previous Day ]
WEATHER ALMANAC - FEBRUARY 24, 2014
[ Next Day → ]
[ °C ]   °F
Weather ElementAverageHighLow
Temperature28.3 °F33.1 °F (1:53 pm)23 °F (6:53 am)
Dewpoint15.3 °F27 °F (12:53 am)7 °F (5:53 pm)
Humidity60.5 %85 % (12:53 am)35 % (5:53 pm)
Barometer30.13 in30.19 in (7:53 pm)30.06 in (12:53 am)
Wind Speed9.8 mph18.4 mph (2:53 pm)
Wind Gust25.3 mph (4:53 pm)
Weather ElementAverage
Visibility10 mi
Wind DirectionWSW (264 °)

Weather ElementTotal
Precipitation---
Heating Degree Days37 (Base 65)
Averaged from 30 records on February 24, 2014
WEATHER CONDITIONS BREAKOUT
WIND DIRECTION BREAKOUT
WEATHER BY HOUR - FEBRUARY 24, 2014
[ °C ]   °F
Local TimeTemperatureDewpointHumidityBarometerVisibilityWind DirectionWind SpeedGust SpeedPrecipitationEventsConditions
12:53 AM30.9 °F27.0 °F85 %30.06 in10.0 miWest (260°)5.8 mphScattered Clouds
1:07 AM32.0 °F27.0 °F82 %30.06 in10.0 miWest (260°)5.8 mphMostly Cloudy
1:23 AM30.9 °F27.0 °F85 %30.06 in10.0 miWNW (290°)8.1 mphMostly Cloudy
1:30 AM30.9 °F24.1 °F76 %30.06 in10.0 miWest (270°)12.7 mphMostly Cloudy
1:37 AM30.0 °F23.0 °F75 %30.06 in10.0 miWNW (290°)8.1 mphScattered Clouds
1:53 AM28.9 °F23.0 °F78 %30.07 in10.0 miWest (280°)9.2 mphScattered Clouds
2:53 AM27.0 °F21.0 °F78 %30.08 in10.0 miWest (280°)4.6 mphMostly Cloudy
3:53 AM26.1 °F18.0 °F71 %30.08 in10.0 miWest (260°)9.2 mphOvercast
4:53 AM25.0 °F16.0 °F69 %30.10 in10.0 miWest (270°)8.1 mphOvercast
5:53 AM24.1 °F16.0 °F71 %30.10 in10.0 miWest (260°)4.6 mphClear
6:53 AM23.0 °F17.1 °F78 %30.11 in10.0 miWSW (250°)8.1 mphScattered Clouds
7:53 AM24.1 °F16.0 °F71 %30.13 in10.0 miWSW (250°)11.5 mphPartly Cloudy
8:53 AM25.0 °F16.0 °F69 %30.15 in10.0 miWSW (250°)12.7 mphPartly Cloudy
9:53 AM25.0 °F15.1 °F66 %30.17 in10.0 miWest (270°)13.8 mphScattered Clouds
10:05 AM25.0 °F16.0 °F69 %30.14 in10.0 miWNW (290°)10.4 mphMostly Cloudy
10:50 AM26.6 °F15.8 °F64 %30.13 in10.0 miWest (270°)13.8 mphScattered Clouds
10:53 AM28.0 °F16.0 °F61 %30.15 in10.0 miWSW (240°)11.5 mphScattered Clouds
11:53 AM28.0 °F14.0 °F56 %30.15 in10.0 miWest (280°)11.5 mph21.9 mphMostly Cloudy
12:53 PM30.0 °F12.9 °F49 %30.14 in10.0 miWest (280°)13.8 mph21.9 mphPartly Cloudy
1:53 PM33.1 °F15.1 °F48 %30.14 in10.0 miWSW (240°)17.3 mph24.2 mphMostly Cloudy
2:53 PM32.0 °F12.0 °F44 %30.14 in10.0 miWSW (250°)18.4 mph24.2 mphMostly Cloudy
3:53 PM32.0 °F10.9 °F42 %30.15 in10.0 miWest (270°)16.1 mph24.2 mphScattered Clouds
4:53 PM33.1 °F9.0 °F37 %30.15 in10.0 miWest (270°)15.0 mph25.3 mphClear
5:53 PM32.0 °F7.0 °F35 %30.16 in10.0 miWest (270°)8.1 mphClear
6:53 PM30.0 °F7.0 °F38 %30.18 in10.0 miWest (270°)9.2 mphClear
7:53 PM28.9 °F7.0 °F40 %30.19 in10.0 miWest (280°)6.9 mphClear
8:53 PM28.9 °F7.0 °F40 %30.18 in10.0 miWest (260°)5.8 mphPartly Cloudy
9:53 PM28.0 °F7.0 °F41 %30.18 in10.0 miWSW (250°)5.8 mphPartly Cloudy
10:53 PM27.0 °F7.0 °F43 %30.17 in10.0 miWest (260°)4.6 mphScattered Clouds
11:53 PM24.1 °F9.0 °F53 %30.15 in10.0 miSSW (200°)4.6 mphClear
Hourly data recorded from KCKB, located miles away from Clarksburg, West Virginia







STORIES FROM OUR PARTNERS